YUBILEINY (RS-30)

Last updated on Fri Dec 19 2025 00:03:11 GMT+0000 (Coordinated Universal Time)

1 32953U 08025A 25352.58551198 .00000007 00000+0 -16944-4 0 9991 2 32953 82.5020 107.7870 0018808 348.1236 11.9398 12.43172084797256
UTC large
Height (km)
Speed (km/s)
/
Latitude / Longitude
Inclination (degrees)
Orbital Period (minutes)
Azimuth
Elevation
Range (km)
Doppler Factor

Next 0 passes for location: London (51.5072 / 0.1276)

Sorry there are no passes over London.